Showing default

EMISAT, 44078

Orbit data source: Space-Track

EMISAT, 44078 is a payload satellite owned by ISRO (IN) in SSO that was launched on Mon, 01 Apr 2019 UTC via a PSLV-QL launch vehicle from the Sirharikota (SRI). Payload-class satellites include a variety of spacecraft equipped with specific instruments for various scientific and technological missions. These include communications satellites like Starlink; space stations such as the ISS; scientific satellites like the Hubble; Earth observation satellites from companies like Planet Labs, Umbra, and HawkEye 360; GPS; miniature CubeSats for education and research; and military/defense satellites.

Loading next visibility...
Identifier
44078, 2019-018A
Orbit
SSO
Country
Flag of ININ / IND
Related business
Manufacturer
ISRO
Mission
Operational Defense Sigint
Bus & Motor
SSB-2, AOCS
Mass
436 kg wet, ~380 kg dry
Launch date (UTC)
2019-04-01 (7 years ago)
Launch vehicle
PSLV-QL
Launch site
Sirharikota (SRI)
Object type
Payload
Rocket body
Debris
Shape & HBR
Box + 2 Pan, 3.0 m
Radar Cross Section
4.485 m², Large (>1 m²)

Expand to show TLE details & history
Last TLE update: 6 hours ago

TLE from 6 hours ago
0 EMISAT
1 44078U 19018A   26264.27540781 -.00000065  00000-0 -60795-5 0  9991
2 44078  98.4551 322.4967 0017191 289.9247  70.0091 14.43669608393920
Epoch: 2026-09-21T06:36Z
TLE epoch observation values (Epoch: 2026-09-21T06:36:35.234Z)
Latitude
-0.00006°
Longitude
-136.80767°
Altitude
745.185 km
Speed
7.484 km/s
True Right ascension
21h 29m 59s
True Declination
0° 00' 00"
Sunlit
Object was in full shadow at epoch
Visualization orbit readout
Latitude
Unknown
Longitude
Unknown
Altitude
Unknown
Speed
Unknown
Apparent Right ascension
Unknown
Apparent Declination
Unknown
Sunlit
N/A
Visualization observer readout
Local Sidereal Time
05:19:37
Azimuth
Unknown
Elevation
Unknown
Doppler factor
Unknown
Orbital elements
Apogee altitude
755.757 km
Perigee altitude
731.272 km
Semi-major axis
7,121.652 km
Eccentricity
0.00172
Inclination
98.4551°
RAAN
322.4967°
Arg. of periapsis
289.9247°
True anomaly
70.19436°
Mean anomaly
70.0091°
Eccentric anomaly
70.10172°
Mean motion
3.61137 °/min
Orbital period
99.69 mins
BSTAR
-0.0000060795
Loading maneuver chart data...
Computing Atmospheric mass density...

Documentation

Showing up to 5 results
|